Location: Dodgeville, WI 53533, USA
(43.0344°N, 90.0900°W)
Time: 17:45:00
(UTC-06:00)

Hubble Space Telescope - Visible Passes

Search period start: 18 December 2018 00:00
Search period end: 28 December 2018 00:00
Orbit: 537 x 540 km, 28.5° (Epoch: 18 December)

Date Brightness Start Highest point End Pass type
(mag) Time Alt. Az. Time Alt. Az. Time Alt. Az.
24 Dec 3.5 19:03:21 10° S 19:03:33 10° S 19:03:33 10° S visible
25 Dec 3.4 18:52:42 10° SSW 18:53:32 11° S 18:53:46 10° S visible
26 Dec 3.4 18:42:16 10° SSW 18:42:57 10° S 18:43:37 10° S visible
